Find SERT 2

NORAD ID: 4327 Int'l Des: 1970-009 Owner: LERC Country: US operational
LEOCIRCULARRETROGRADESSO

Live-Position

3D-Globus wird geladen...

Über SERT 2

Beschreibung wird geladen...

Nächste Überflüge

Passes for default location (London). Set your location on the main map for personalized predictions.

Höhenverlauf

Loading altitude history...

Zweizeiliger Elementsatz

1 04327U 70009A 26106.69556627 .00000013 00000-0 74717-4 0 9997
2 04327 99.2807 47.7200 0005786 70.8249 353.3756 13.58734501785053
Epoch: 16. Apr. 2026 • Age: 18 hours

Aktueller Status

Höhe 1041.7 km
Geschwindigkeit 7.34 km/s
Subsatellitenpunkt 37.66°N, 42.06°E
Typ other

Most Searched